Regional Weather Roundup
Issued by NWS

Home | Current Version | Previous Version | Text Only | Print | Product List | Glossary On
Versions: 1 2 3 4 5 6 7 8 9 10 11 12 13 14 15 16 17 18 19 20 21 22 23 24 25 26 27 28 29 30 31 32 33 34 35 36 37 38 39 40 41 42 43 44 45 46 47 48 49 50
000
ASUS46 KSEW 230910
RWRWA

WASHINGTON REGIONAL WEATHER ROUNDUP
NATIONAL WEATHER SERVICE SEATTLE WA
200 AM PDT SAT JUL 23 2016

NOTE:"FAIR" INDICATES FEW OR NO CLOUDS BELOW 12,000 FEET WITH NO
SIGNIFICANT WEATHER AND/OR OBSTRUCTIONS TO VISIBILITY.

WAZ505-507>509-231000-
SEATTLE, TACOMA, EVERETT, AND VICINITY

CITY           SKY/WX    TMP DP  RH WIND       PRES   REMARKS
EVERETT        CLOUDY    57  54  89 CALM      30.29R
BOEING FIELD   MOCLDY    61  54  77 S5        30.27S
RENTON         MOCLDY    61  55  81 S3        30.27S
SEATAC AIRPORT MOCLDY    60  56  86 SW5       30.28F
JBLM-MCCHORD   CLOUDY    58  57  95 S3        30.27F
PUYALLUP         N/A     59  57  94 CALM      30.28F
BREMERTON      CLOUDY    57  55  94 CALM      30.28F
JBLM-FT LEWIS  CLOUDY    58  57  96 SE5       30.27F
TACOMA NARROWS MOCLDY    58  54  86 S3        30.28S
$$

WAZ001-503-506-510-514-515-231000-
NORTH INTERIOR

CITY           SKY/WX    TMP DP  RH WIND       PRES   REMARKS
BELLINGHAM     CLOUDY    63  52  67 S8        30.24F
FRIDAY HARBOR  CLEAR     57  51  80 SW6       30.25F
EASTSOUND      CLEAR     57  52  82 S3        30.22F
PORT ANGELES   PTCLDY    57  53  86 W13       30.28S
EDIZ HOOK      PTSUNNY   56  53  90 W8        30.27F
PORT TOWNSEND  CLOUDY    59  57  94 CALM      30.28S
NAS WHIDBEY    CLOUDY    60  52  74 SW5       30.30F
ARLINGTON      CLOUDY    57  50  77 CALM      30.30R
BURLINGTON     CLOUDY    59  55  88 SE3       30.27S
$$

WAZ020-022-039-040-504-511-512-231000-
SOUTHWEST INTERIOR

CITY           SKY/WX    TMP DP  RH WIND       PRES   REMARKS
SHELTON        MOCLDY    56  53  90 SW8       30.25F
OLYMPIA        CLOUDY    57  53  86 CALM      30.28S
CHEHALIS       CLOUDY    59  55  88 CALM      30.29S
KELSO          CLOUDY    61  56  83 N5        30.29F
VANCOUVER      CLOUDY    61  53  75 NW5       30.27S
SCAPPOOSE, OR  CLOUDY    60  53  77 N5        30.27S
PORTLAND, OR   CLOUDY    61  54  77 NW8       30.27F
$$

WAZ021-516-517-231000-
WASHINGTON COAST

CITY           SKY/WX    TMP DP  RH WIND       PRES   REMARKS
FORKS          CLOUDY    57  57 100 CALM      30.28F
HOQUIAM          N/A     60  57  89 NW6       30.29
ASTORIA, OR    CLOUDY    60  55  83 W3        30.28F
$$

WAZ019-023-024-040-518-519-231000-
CASCADE MOUNTAINS AND COLUMBIA GORGE

CITY           SKY/WX    TMP DP  RH WIND       PRES   REMARKS
STAMPEDE PASS  CLOUDY    47  45  93 VRB5      30.28F
TROUTDALE, OR  MOCLDY    60  54  80 VRB5      30.26F
THE DALLES, OR PTCLDY    63  50  62 NW7       30.18F
$$

WAZ026-027-041>044-520-521-231000-
EAST SLOPES

CITY           SKY/WX    TMP DP  RH WIND       PRES   REMARKS
OMAK           MOCLDY    60  42  51 W7        30.11S
WENATCHEE      PTCLDY    60  45  57 W12       30.14F
ELLENSBURG     PTCLDY    58  47  66 NW8       30.18F
YAKIMA         CLEAR     59  45  59 SW3       30.17F
$$

WAZ028-034-035-231000-
COLUMBIA BASIN

CITY           SKY/WX    TMP DP  RH WIND       PRES   REMARKS
EPHRATA        MOCLDY    62  45  53 VRB5      30.12S
MOSES LAKE     MOCLDY    60  45  57 W6        30.13F
PASCO          CLEAR     63  46  54 CALM      30.16S
HERMISTON, OR  CLEAR     62  49  62 SW8       30.17S
$$

WAZ036>038-231000-
NORTHEAST WASHINGTON

CITY           SKY/WX    TMP DP  RH WIND       PRES   REMARKS
SPOKANE GEIGER PTCLDY    56  50  80 S7        30.14S
SPOKANE FELTS  CLEAR     55  53  93 NE3       30.15R FOG
FAIRCHILD AFB  CLEAR     53  49  85 S6        30.14S
COEURDALENE,ID CLEAR     54  48  82 NE3       30.13F
DEER PARK      CLEAR     49  47  93 CALM      30.15S
$$

WAZ029>033-231000-
SOUTHEAST WASHINGTON

CITY           SKY/WX    TMP DP  RH WIND       PRES   REMARKS
PULLMAN        CLEAR     57  46  66 W7        30.19S
LEWISTON, ID   CLEAR     66  47  50 SW3       30.15R
WALLA WALLA    CLEAR     61  48  62 S8        30.18F
PENDLETON, OR  CLEAR     56  45  66 N5        30.20S
$$



USA.gov is the U.S. government's official web portal to all federal, state and local government web resources and services.